STARLINK-31265, 59074

Orbit data source: Space-Track

STARLINK-31265, 59074 is a payload satellite owned by SpaceX/Seattle (US) in LEO that was launched on Thu, 29 Feb 2024 UTC via an FALCON 9 launch vehicle from the Air Force Eastern Test Range (AFETR). Payload-class satellites include a variety of spacecraft equipped with specific instruments for various scientific and technological missions. These include communications satellites like Starlink; space stations such as the ISS; scientific satellites like the Hubble; Earth observation satellites from companies like Planet Labs, Umbra, and HawkEye 360; GPS; miniature CubeSats for education and research; and military/defense satellites.

Loading next visibility...
Identifier
59074, 2024-041A
Orbit
LEO
Country
Flag of USUS
Related business
Manufacturer
SpaceX/Seattle
Mission
Operational Commercial Communications
Bus & Motor
STARLINK V2M, Unknown motor
Mass
730 kg wet, ~700 kg dry
Launch date (UTC)
2024-02-29 (2 years ago)
Launch vehicle
FALCON 9
Launch site
Air Force Eastern Test Range (AFETR)
Object type
Payload
Rocket body
Debris
Shape & HBR
Box + 2 Pan, 17.7 m
Radar Cross Section
33.884 m², Large (>1 m²)

Expand to show TLE details & history
Last TLE update: 2 days ago

TLE from 2 days ago
0 STARLINK-31265
1 59074U 24041A   26171.09936491  .00000054  00000-0  11468-4 0  9997
2 59074  43.0029  92.3595 0000819 284.2639  75.8121 15.27589622129935
Epoch: 2026-06-20T02:23Z
TLE epoch observation values (Epoch: 2026-06-20T02:23:05.128Z)
Latitude
-0.00005°
Longitude
148.26923°
Altitude
482.658 km
Speed
7.626 km/s
True Right ascension
06h 09m 26s
True Declination
0° 00' 00"
Sunlit
Object was in daylight at epoch
Visualization orbit readout
Latitude
Unknown
Longitude
Unknown
Altitude
Unknown
Speed
Unknown
Apparent Right ascension
Unknown
Apparent Declination
Unknown
Sunlit
N/A
Visualization observer readout
Local Sidereal Time
21:29:25
Azimuth
Unknown
Elevation
Unknown
Doppler factor
Unknown
Orbital elements
Apogee altitude
485.527 km
Perigee altitude
484.403 km
Semi-major axis
6,863.102 km
Eccentricity
0.00008
Inclination
43.0029°
RAAN
92.3595°
Arg. of periapsis
284.2639°
True anomaly
75.8212°
Mean anomaly
75.8121°
Eccentric anomaly
75.81665°
Mean motion
3.81735 °/min
Orbital period
94.31 mins
BSTAR
0.000011468
Loading maneuver chart data...
Computing Atmospheric mass density...
Loading historical data...
Loading historical data...
Loading historical data...
Loading historical data...
Loading historical data...
Loading historical data...
Loading historical data...

Documentation

Showing up to 5 results
|